WZZ4009 LHBP-LFMN

Flight info

Callsign WZZ4009
Flight time 1h 46m
Altitude 38000
Route GILEP DCT ZOLKU DCT SUBES DCT SUNIS DCT RADLY DCT MONFA/N0435F390 DCT BABAG DCT ARDAM DCT BIKTU DCT TOBGA/N0406F300 DCT DOBIM DCT AKUTI R16 KERIT
Aircraft A320/M-SDE1E2E3FGIJ1J4RWXY/LB1

Departure

Time 2026-05-04 12:18
Airport Budapest Liszt Ferenc International Airport (LHBP)

Arrival

Time 2026-05-04 14:04
Airport Nice-Côte d'Azur Airport (LFMN)
Time Latitude Longitude Altitude Speed Heading
2026-05-04 11:46 47.43331 19.25882 485 ft 0 kts 222°
2026-05-04 12:10 47.43341 19.25895 457 ft 4 kts 223°
2026-05-04 12:10 47.43361 19.25922 456 ft 4 kts 221°
2026-05-04 12:10 47.43382 19.25945 453 ft 4 kts 201°
2026-05-04 12:11 47.43402 19.25954 454 ft 4 kts 206°
2026-05-04 12:11 47.43423 19.25977 456 ft 4 kts 223°
2026-05-04 12:11 47.43427 19.25984 457 ft 0 kts 222°
2026-05-04 12:14 47.43514 19.25765 456 ft 12 kts 312°
2026-05-04 12:15 47.43578 19.25712 457 ft 12 kts 13°
2026-05-04 12:15 47.43647 19.25795 457 ft 14 kts 42°
2026-05-04 12:15 47.43727 19.25901 457 ft 17 kts 42°
2026-05-04 12:15 47.43814 19.26019 458 ft 18 kts 42°
2026-05-04 12:16 47.43912 19.26150 458 ft 20 kts 42°
2026-05-04 12:16 47.43999 19.26266 460 ft 7 kts 42°
2026-05-04 12:16 47.44035 19.26315 463 ft 8 kts 42°
2026-05-04 12:16 47.44064 19.26396 466 ft 9 kts 71°
2026-05-04 12:17 47.44072 19.26492 472 ft 11 kts 93°
2026-05-04 12:17 47.44047 19.26559 470 ft 1 kts 132°
2026-05-04 12:17 47.43997 19.26641 470 ft 37 kts 133°
2026-05-04 12:17 47.43647 19.27205 472 ft 108 kts 132°
2026-05-04 12:18 47.43007 19.28235 467 ft 160 kts 131°
2026-05-04 12:18 47.42274 19.29459 1153 ft 157 kts 135°
2026-05-04 12:18 47.41709 19.30882 1831 ft 168 kts 124°
2026-05-04 12:18 47.41104 19.32489 2262 ft 188 kts 124°
2026-05-04 12:19 47.40422 19.34267 2692 ft 209 kts 123°
2026-05-04 12:19 47.39664 19.36222 3082 ft 230 kts 123°
2026-05-04 12:19 47.38850 19.38339 3882 ft 239 kts 123°
2026-05-04 12:19 47.37770 19.40265 4574 ft 253 kts 150°
2026-05-04 12:20 47.36080 19.40915 5408 ft 257 kts 186°
2026-05-04 12:20 47.34444 19.39959 6338 ft 263 kts 220°
2026-05-04 12:20 47.33331 19.37795 7247 ft 269 kts 241°
2026-05-04 12:20 47.32552 19.35259 8164 ft 274 kts 246°
2026-05-04 12:21 47.31819 19.32627 9097 ft 280 kts 246°
2026-05-04 12:21 47.31070 19.29940 9999 ft 285 kts 245°
2026-05-04 12:21 47.30243 19.27186 10487 ft 305 kts 241°
2026-05-04 12:21 47.29152 19.24387 10931 ft 322 kts 236°
2026-05-04 12:22 47.27918 19.21595 11667 ft 328 kts 234°
2026-05-04 12:22 47.26628 19.18786 12487 ft 333 kts 234°
2026-05-04 12:22 47.25335 19.15974 13269 ft 337 kts 235°
2026-05-04 12:22 47.24022 19.13073 14046 ft 342 kts 236°
2026-05-04 12:23 47.22713 19.10118 14748 ft 346 kts 236°
2026-05-04 12:23 47.21553 19.06975 15413 ft 352 kts 249°
2026-05-04 12:23 47.21005 19.03449 16073 ft 357 kts 265°
2026-05-04 12:23 47.21161 18.99788 16753 ft 361 kts 282°
2026-05-04 12:24 47.22009 18.96351 17430 ft 365 kts 298°
2026-05-04 12:24 47.23469 18.93276 18136 ft 368 kts 308°
2026-05-04 12:24 47.25062 18.90301 18805 ft 370 kts 308°
2026-05-04 12:24 47.26661 18.87313 19457 ft 373 kts 308°
2026-05-04 12:25 47.28272 18.84294 20117 ft 375 kts 308°
2026-05-04 12:25 47.29889 18.81255 20771 ft 378 kts 308°
2026-05-04 12:25 47.31520 18.78184 21374 ft 380 kts 308°
2026-05-04 12:25 47.33136 18.75131 21965 ft 383 kts 308°
2026-05-04 12:26 47.34779 18.72024 22534 ft 385 kts 308°
2026-05-04 12:26 47.36435 18.68889 23116 ft 388 kts 308°
2026-05-04 12:26 47.38103 18.65726 23702 ft 391 kts 308°
2026-05-04 12:26 47.39782 18.62540 24198 ft 394 kts 307°
2026-05-04 12:27 47.41272 18.59141 24691 ft 396 kts 297°
2026-05-04 12:27 47.42326 18.55432 25187 ft 398 kts 288°
2026-05-04 12:27 47.43129 18.51498 25675 ft 400 kts 287°
2026-05-04 12:27 47.43932 18.47551 26167 ft 402 kts 287°
2026-05-04 12:28 47.44741 18.43578 26659 ft 404 kts 288°
2026-05-04 12:28 47.45551 18.39591 27154 ft 406 kts 287°
2026-05-04 12:28 47.46366 18.35584 27622 ft 408 kts 288°
2026-05-04 12:28 47.47184 18.31559 28095 ft 410 kts 288°
2026-05-04 12:29 47.47729 18.28870 28418 ft 411 kts 288°
2026-05-04 12:29 47.48808 18.23402 29026 ft 415 kts 286°
2026-05-04 12:29 47.49527 18.19308 29476 ft 418 kts 285°
2026-05-04 12:29 47.50210 18.15103 29929 ft 421 kts 284°
2026-05-04 12:30 47.50871 18.10871 30356 ft 423 kts 284°
2026-05-04 12:30 47.51534 18.06610 30731 ft 426 kts 284°
2026-05-04 12:30 47.52211 18.02323 31115 ft 428 kts 284°
2026-05-04 12:30 47.52904 17.98026 31494 ft 430 kts 284°
2026-05-04 12:31 47.53602 17.93768 31872 ft 433 kts 285°
2026-05-04 12:31 47.54309 17.89426 32371 ft 432 kts 283°
2026-05-04 12:31 47.54688 17.85020 32914 ft 432 kts 273°
2026-05-04 12:31 47.54525 17.80575 33448 ft 433 kts 263°
2026-05-04 12:32 47.53826 17.76229 33985 ft 435 kts 253°
2026-05-04 12:32 47.51197 17.68157 34925 ft 435 kts 244°
2026-05-04 12:32 47.49791 17.64210 35370 ft 433 kts 244°
2026-05-04 12:33 47.48409 17.60318 35821 ft 432 kts 244°
2026-05-04 12:33 47.47009 17.56388 36272 ft 430 kts 244°
2026-05-04 12:33 47.45608 17.52472 36712 ft 429 kts 244°
2026-05-04 12:33 47.44215 17.48587 37128 ft 428 kts 244°
2026-05-04 12:34 47.42819 17.44692 37535 ft 427 kts 244°
2026-05-04 12:34 47.41593 17.40715 37926 ft 424 kts 251°
2026-05-04 12:34 47.40562 17.36630 38065 ft 424 kts 251°
2026-05-04 12:35 47.38514 17.28556 38078 ft 422 kts 251°
2026-05-04 12:35 47.36449 17.20445 38062 ft 421 kts 251°
2026-05-04 12:36 47.34384 17.12355 38049 ft 421 kts 251°
2026-05-04 12:36 47.32303 17.04271 38047 ft 421 kts 251°
2026-05-04 12:37 47.30217 16.96193 38046 ft 421 kts 251°
2026-05-04 12:37 47.28144 16.88171 38049 ft 422 kts 251°
2026-05-04 12:38 47.26050 16.80084 38053 ft 422 kts 251°
2026-05-04 12:38 47.23944 16.72006 38054 ft 422 kts 251°
2026-05-04 12:39 47.21834 16.63948 38058 ft 421 kts 251°
2026-05-04 12:39 47.19738 16.55943 38057 ft 421 kts 251°
2026-05-04 12:40 47.17614 16.47908 38050 ft 421 kts 250°
2026-05-04 12:40 47.15845 16.41231 38055 ft 421 kts 250°
2026-05-04 12:41 47.12989 16.32171 38053 ft 423 kts 239°
2026-05-04 12:41 47.10357 16.26044 38053 ft 422 kts 240°
2026-05-04 12:42 47.07260 16.18779 38055 ft 422 kts 240°
2026-05-04 12:42 47.04138 16.11465 38059 ft 422 kts 240°
2026-05-04 12:43 47.01013 16.04181 38057 ft 421 kts 240°
2026-05-04 12:43 46.97909 15.96952 38059 ft 421 kts 239°
2026-05-04 12:44 46.94777 15.89700 38055 ft 420 kts 239°
2026-05-04 12:44 46.91640 15.82459 38051 ft 420 kts 239°
2026-05-04 12:45 46.88527 15.75291 38050 ft 420 kts 239°
2026-05-04 12:45 46.85392 15.68087 38048 ft 419 kts 239°
2026-05-04 12:46 46.82256 15.60891 38043 ft 419 kts 239°
2026-05-04 12:46 46.79132 15.53748 38042 ft 419 kts 239°
2026-05-04 12:47 46.75989 15.46579 38042 ft 419 kts 239°
2026-05-04 12:47 46.72840 15.39419 38047 ft 419 kts 239°
2026-05-04 12:48 46.69711 15.32319 38049 ft 419 kts 239°
2026-05-04 12:48 46.66554 15.25170 38049 ft 418 kts 239°
2026-05-04 12:49 46.63171 15.18325 38048 ft 420 kts 231°
2026-05-04 12:49 46.59398 15.11844 38048 ft 420 kts 231°
2026-05-04 12:50 46.55616 15.05364 38052 ft 419 kts 231°
2026-05-04 12:50 46.51835 14.98888 38055 ft 419 kts 231°
2026-05-04 12:51 46.48093 14.92483 38056 ft 419 kts 231°
2026-05-04 12:51 46.44317 14.86049 38061 ft 418 kts 231°
2026-05-04 12:52 46.40537 14.79629 38070 ft 418 kts 231°
2026-05-04 12:52 46.36761 14.73220 38080 ft 417 kts 231°
2026-05-04 12:53 46.33010 14.66863 38088 ft 417 kts 231°
2026-05-04 12:53 46.29237 14.60490 38091 ft 417 kts 231°
2026-05-04 12:54 46.25460 14.54128 38093 ft 416 kts 231°
2026-05-04 12:54 46.21679 14.47769 38096 ft 416 kts 231°
2026-05-04 12:55 46.17916 14.41468 38092 ft 416 kts 231°
2026-05-04 12:55 46.14126 14.35134 38092 ft 416 kts 231°
2026-05-04 12:56 46.10332 14.28797 38091 ft 416 kts 231°
2026-05-04 12:56 46.06564 14.22522 38092 ft 416 kts 231°
2026-05-04 12:57 46.02769 14.16217 38097 ft 416 kts 231°
2026-05-04 12:57 45.98974 14.09930 38097 ft 416 kts 230°
2026-05-04 12:58 45.95174 14.03645 38097 ft 416 kts 230°
2026-05-04 12:58 45.91401 13.97418 38105 ft 416 kts 230°
2026-05-04 12:59 45.87591 13.91142 38106 ft 416 kts 230°
2026-05-04 12:59 45.83777 13.84886 38108 ft 416 kts 230°
2026-05-04 13:00 45.79958 13.78630 38106 ft 417 kts 230°
2026-05-04 13:00 45.76159 13.72396 38110 ft 417 kts 230°
2026-05-04 13:01 45.72327 13.66135 38114 ft 417 kts 230°
2026-05-04 13:01 45.68488 13.59896 38117 ft 417 kts 230°
2026-05-04 13:02 45.64644 13.53645 38120 ft 417 kts 230°
2026-05-04 13:02 45.60828 13.47458 38125 ft 417 kts 230°
2026-05-04 13:03 45.56984 13.41249 38126 ft 417 kts 230°
2026-05-04 13:03 45.53165 13.35086 38121 ft 416 kts 230°
2026-05-04 13:04 45.49322 13.28901 38122 ft 416 kts 230°
2026-05-04 13:04 45.45436 13.22811 38246 ft 413 kts 228°
2026-05-04 13:04 45.43461 13.19831 38537 ft 413 kts 228°
2026-05-04 13:05 45.41475 13.16865 38804 ft 413 kts 228°
2026-05-04 13:05 45.39489 13.13912 39008 ft 413 kts 226°
2026-05-04 13:05 45.37343 13.11264 39076 ft 415 kts 218°
2026-05-04 13:06 45.32711 13.06350 39091 ft 414 kts 219°
2026-05-04 13:06 45.28097 13.01428 39088 ft 414 kts 219°
2026-05-04 13:07 45.23489 12.96524 39088 ft 414 kts 219°
2026-05-04 13:07 45.18877 12.91629 39089 ft 414 kts 219°
2026-05-04 13:08 45.14284 12.86770 39089 ft 414 kts 219°
2026-05-04 13:08 45.09647 12.81881 39091 ft 414 kts 219°
2026-05-04 13:09 45.05050 12.77038 39088 ft 414 kts 219°
2026-05-04 13:09 45.00416 12.72158 39087 ft 414 kts 219°
2026-05-04 13:10 44.95784 12.67294 39090 ft 415 kts 219°
2026-05-04 13:10 44.91174 12.62472 39088 ft 415 kts 219°
2026-05-04 13:11 44.86523 12.57630 39092 ft 415 kts 219°
2026-05-04 13:11 44.81872 12.52782 39095 ft 415 kts 219°
2026-05-04 13:12 44.77334 12.47847 39096 ft 414 kts 223°
2026-05-04 13:12 44.73022 12.42497 39096 ft 413 kts 225°
2026-05-04 13:13 44.68772 12.37059 39099 ft 412 kts 225°
2026-05-04 13:13 44.64509 12.31723 39094 ft 412 kts 224°
2026-05-04 13:14 44.60187 12.26418 39098 ft 412 kts 224°
2026-05-04 13:14 44.55857 12.21139 39096 ft 411 kts 224°
2026-05-04 13:15 44.51559 12.15898 39102 ft 411 kts 224°
2026-05-04 13:15 44.47241 12.10625 39104 ft 411 kts 224°
2026-05-04 13:16 44.42919 12.05367 39112 ft 411 kts 224°
2026-05-04 13:16 44.38627 12.00153 39109 ft 411 kts 224°
2026-05-04 13:17 44.34311 11.94906 39107 ft 410 kts 224°
2026-05-04 13:17 44.29994 11.89681 39113 ft 410 kts 224°
2026-05-04 13:18 44.25662 11.84457 39121 ft 410 kts 224°
2026-05-04 13:18 44.21359 11.79280 39122 ft 410 kts 224°
2026-05-04 13:19 44.17030 11.74064 39124 ft 410 kts 224°
2026-05-04 13:19 44.12697 11.68863 39124 ft 410 kts 224°
2026-05-04 13:20 44.08370 11.63673 39126 ft 410 kts 224°
2026-05-04 13:20 44.04069 11.58526 39124 ft 410 kts 224°
2026-05-04 13:21 43.99799 11.53279 39119 ft 407 kts 230°
2026-05-04 13:21 43.96024 11.47424 39119 ft 406 kts 231°
2026-05-04 13:22 43.92254 11.41591 39114 ft 405 kts 231°
2026-05-04 13:22 43.88473 11.35783 39113 ft 405 kts 231°
2026-05-04 13:23 43.84726 11.30029 39112 ft 404 kts 232°
2026-05-04 13:23 43.80947 11.24229 39113 ft 404 kts 232°
2026-05-04 13:24 43.77190 11.18456 39109 ft 403 kts 232°
2026-05-04 13:24 43.73428 11.12708 39111 ft 402 kts 232°
2026-05-04 13:25 43.67830 11.04146 39116 ft 401 kts 232°
2026-05-04 13:25 43.64085 10.98431 39119 ft 400 kts 232°
2026-05-04 13:26 43.60358 10.92765 39120 ft 400 kts 232°
2026-05-04 13:26 43.57214 10.88006 39123 ft 399 kts 232°
2026-05-04 13:27 43.53500 10.82387 39125 ft 399 kts 232°
2026-05-04 13:27 43.49758 10.76743 39129 ft 398 kts 232°
2026-05-04 13:28 43.46008 10.71100 39131 ft 397 kts 232°
2026-05-04 13:28 43.42299 10.65524 39129 ft 397 kts 232°
2026-05-04 13:29 43.38572 10.59924 39126 ft 396 kts 232°
2026-05-04 13:29 43.34849 10.54343 39126 ft 395 kts 232°
2026-05-04 13:30 43.31153 10.48815 39123 ft 394 kts 232°
2026-05-04 13:30 43.27435 10.43269 39126 ft 394 kts 232°
2026-05-04 13:31 43.23728 10.37744 39118 ft 393 kts 232°
2026-05-04 13:31 43.20021 10.32232 39115 ft 392 kts 232°
2026-05-04 13:32 43.16307 10.26729 39115 ft 392 kts 232°
2026-05-04 13:32 43.12628 10.21288 39110 ft 391 kts 232°
2026-05-04 13:33 43.08932 10.15824 39107 ft 390 kts 232°
2026-05-04 13:33 43.05242 10.10372 39100 ft 390 kts 232°
2026-05-04 13:34 43.01572 10.04963 39097 ft 390 kts 232°
2026-05-04 13:34 42.99722 10.02236 38784 ft 393 kts 232°
2026-05-04 13:34 42.97834 9.99449 37641 ft 405 kts 232°
2026-05-04 13:35 42.95898 9.96598 36654 ft 412 kts 232°
2026-05-04 13:35 42.92463 9.90440 35481 ft 399 kts 250°
2026-05-04 13:35 42.91787 9.86828 35047 ft 390 kts 266°
2026-05-04 13:36 42.91958 9.83160 34627 ft 386 kts 281°
2026-05-04 13:36 42.92894 9.79788 34166 ft 388 kts 296°
2026-05-04 13:36 42.94441 9.76748 33572 ft 390 kts 301°
2026-05-04 13:36 42.95858 9.73633 33052 ft 382 kts 292°
2026-05-04 13:37 42.96985 9.70373 32601 ft 377 kts 291°
2026-05-04 13:37 42.98090 9.67144 32125 ft 373 kts 291°
2026-05-04 13:37 42.99181 9.63948 31663 ft 369 kts 291°
2026-05-04 13:37 43.00261 9.60785 31223 ft 366 kts 291°
2026-05-04 13:38 43.01334 9.57639 30793 ft 363 kts 291°
2026-05-04 13:38 43.02382 9.54560 30363 ft 360 kts 291°
2026-05-04 13:38 43.03437 9.51460 29908 ft 358 kts 292°
2026-05-04 13:38 43.04483 9.48386 29500 ft 354 kts 292°
2026-05-04 13:39 43.05513 9.45351 29102 ft 350 kts 292°
2026-05-04 13:39 43.06529 9.42343 28716 ft 347 kts 291°
2026-05-04 13:39 43.07538 9.39361 28348 ft 343 kts 291°
2026-05-04 13:39 43.08532 9.36413 27965 ft 340 kts 291°
2026-05-04 13:40 43.09519 9.33485 27595 ft 336 kts 291°
2026-05-04 13:40 43.10482 9.30633 27232 ft 333 kts 292°
2026-05-04 13:40 43.11446 9.27768 26866 ft 329 kts 292°
2026-05-04 13:40 43.12402 9.24930 26506 ft 326 kts 292°
2026-05-04 13:41 43.13345 9.22120 26134 ft 324 kts 292°
2026-05-04 13:41 43.14282 9.19322 25762 ft 322 kts 292°
2026-05-04 13:41 43.15216 9.16539 25385 ft 320 kts 292°
2026-05-04 13:42 43.17070 9.11006 24625 ft 318 kts 292°
2026-05-04 13:42 43.17992 9.08250 24241 ft 318 kts 292°
2026-05-04 13:42 43.18900 9.05533 23860 ft 317 kts 292°
2026-05-04 13:42 43.19820 9.02777 23437 ft 318 kts 292°
2026-05-04 13:43 43.20734 9.00022 23021 ft 316 kts 292°
2026-05-04 13:43 43.21643 8.97281 22621 ft 315 kts 292°
2026-05-04 13:43 43.22553 8.94549 22222 ft 314 kts 292°
2026-05-04 13:43 43.23460 8.91832 21826 ft 313 kts 292°
2026-05-04 13:44 43.24355 8.89148 21426 ft 312 kts 291°
2026-05-04 13:44 43.25257 8.86438 21036 ft 312 kts 291°
2026-05-04 13:44 43.26158 8.83734 20637 ft 312 kts 291°
2026-05-04 13:44 43.27059 8.81025 20256 ft 312 kts 291°
2026-05-04 13:45 43.27959 8.78313 19847 ft 312 kts 291°
2026-05-04 13:45 43.28856 8.75599 19451 ft 312 kts 291°
2026-05-04 13:45 43.29752 8.72878 19052 ft 312 kts 291°
2026-05-04 13:45 43.30646 8.70156 18657 ft 313 kts 291°
2026-05-04 13:46 43.31543 8.67426 18250 ft 314 kts 291°
2026-05-04 13:46 43.32429 8.64731 17823 ft 313 kts 291°
2026-05-04 13:46 43.33311 8.62002 17429 ft 311 kts 288°
2026-05-04 13:46 43.33863 8.59155 17031 ft 306 kts 275°
2026-05-04 13:47 43.33956 8.56262 16842 ft 304 kts 264°
2026-05-04 13:47 43.33733 8.53342 16670 ft 308 kts 262°
2026-05-04 13:47 43.33490 8.50418 16476 ft 308 kts 262°
2026-05-04 13:47 43.33246 8.47495 16284 ft 307 kts 262°
2026-05-04 13:48 43.33001 8.44578 16096 ft 307 kts 261°
2026-05-04 13:48 43.32759 8.41698 15906 ft 306 kts 262°
2026-05-04 13:48 43.32518 8.38798 15716 ft 305 kts 262°
2026-05-04 13:48 43.32279 8.35905 15522 ft 304 kts 262°
2026-05-04 13:49 43.32039 8.33017 15338 ft 304 kts 262°
2026-05-04 13:49 43.31794 8.30130 15149 ft 303 kts 261°
2026-05-04 13:49 43.31547 8.27258 14964 ft 302 kts 261°
2026-05-04 13:49 43.31299 8.24388 14772 ft 302 kts 262°
2026-05-04 13:50 43.31057 8.21572 14596 ft 301 kts 262°
2026-05-04 13:50 43.30812 8.18718 14410 ft 300 kts 262°
2026-05-04 13:50 43.30568 8.15869 14222 ft 300 kts 262°
2026-05-04 13:50 43.30354 8.13033 13917 ft 298 kts 266°
2026-05-04 13:51 43.30540 8.10194 13532 ft 299 kts 281°
2026-05-04 13:51 43.31233 8.07504 13126 ft 301 kts 295°
2026-05-04 13:51 43.32270 8.04996 12726 ft 301 kts 297°
2026-05-04 13:51 43.33300 8.02534 12344 ft 301 kts 297°
2026-05-04 13:52 43.35365 7.97543 11593 ft 299 kts 297°
2026-05-04 13:52 43.36387 7.95054 11214 ft 298 kts 297°
2026-05-04 13:52 43.37405 7.92573 10860 ft 298 kts 297°
2026-05-04 13:53 43.38424 7.90092 10497 ft 297 kts 297°
2026-05-04 13:53 43.39409 7.87594 10161 ft 295 kts 291°
2026-05-04 13:53 43.40095 7.84964 9832 ft 291 kts 284°
2026-05-04 13:54 43.41234 7.79672 9104 ft 289 kts 283°
2026-05-04 13:54 43.41800 7.77019 8747 ft 288 kts 283°
2026-05-04 13:54 43.42928 7.71735 8025 ft 287 kts 283°
2026-05-04 13:55 43.43488 7.69104 7695 ft 286 kts 284°
2026-05-04 13:55 43.44594 7.63849 7032 ft 286 kts 283°
2026-05-04 13:55 43.45139 7.61251 6712 ft 286 kts 284°
2026-05-04 13:56 43.45691 7.58621 6350 ft 286 kts 283°
2026-05-04 13:56 43.46230 7.55996 6076 ft 283 kts 283°
2026-05-04 13:56 43.47280 7.50743 6067 ft 286 kts 283°
2026-05-04 13:57 43.47799 7.48094 6069 ft 286 kts 283°
2026-05-04 13:57 43.48318 7.45444 6056 ft 286 kts 283°
2026-05-04 13:58 43.49802 7.37557 5055 ft 283 kts 283°
2026-05-04 13:58 43.50713 7.32304 4353 ft 281 kts 283°
2026-05-04 13:58 43.51149 7.29695 4121 ft 273 kts 283°
2026-05-04 13:59 43.51547 7.27256 3973 ft 256 kts 283°
2026-05-04 13:59 43.51920 7.24900 3606 ft 249 kts 283°
2026-05-04 13:59 43.52638 7.20322 3018 ft 231 kts 283°
2026-05-04 14:00 43.52953 7.18224 2894 ft 217 kts 283°
2026-05-04 14:00 43.53859 7.14512 2534 ft 196 kts 320°
2026-05-04 14:00 43.55026 7.13729 2264 ft 183 kts
2026-05-04 14:01 43.56268 7.13725 1996 ft 176 kts
2026-05-04 14:01 43.57463 7.13675 1729 ft 165 kts
2026-05-04 14:01 43.59495 7.13526 1577 ft 135 kts
2026-05-04 14:02 43.60344 7.13856 1393 ft 124 kts 36°
2026-05-04 14:02 43.60970 7.14626 1238 ft 122 kts 48°
2026-05-04 14:02 43.61576 7.15455 1077 ft 122 kts 48°
2026-05-04 14:02 43.62178 7.16281 911 ft 121 kts 50°
2026-05-04 14:03 43.62766 7.17084 749 ft 118 kts 48°
2026-05-04 14:03 43.63348 7.17882 574 ft 118 kts 51°
2026-05-04 14:03 43.63930 7.18683 419 ft 118 kts 51°
2026-05-04 14:03 43.64503 7.19471 296 ft 115 kts 51°
2026-05-04 14:04 43.65622 7.21010 28 ft 100 kts 47°
2026-05-04 14:04 43.65984 7.21509 22 ft 36 kts 44°
2026-05-04 14:04 43.66123 7.21701 22 ft 17 kts 44°
2026-05-04 14:05 43.66274 7.21674 22 ft 11 kts 310°
2026-05-04 14:05 43.66267 7.21577 22 ft 13 kts 223°
2026-05-04 14:05 43.66195 7.21479 22 ft 16 kts 225°
2026-05-04 14:06 43.66107 7.21359 22 ft 19 kts 225°
2026-05-04 14:06 43.66009 7.21226 22 ft 18 kts 224°
2026-05-04 14:06 43.65961 7.21105 22 ft 13 kts 286°
2026-05-04 14:06 43.66024 7.21058 23 ft 12 kts 349°
2026-05-04 14:07 43.66102 7.21040 22 ft 9 kts 351°
2026-05-04 14:07 43.66140 7.21012 22 ft 6 kts 279°
2026-05-04 14:07 43.66134 7.20955 22 ft 2 kts 261°
2026-05-04 14:07 43.66132 7.20936 22 ft 1 kts 261°
2026-05-04 14:08 43.66132 7.20935 22 ft 0 kts 261°